Wind_Speed
69 70 71 72 72 73 73 74 74 74 74 73 71 70 69 69 69 69 69 69 69 70 70 70 70 71 71 72 72 72 73 73 74 74 74 74 74 74 74 74 74 73
68 69 70 71 71 72 73 73 75 76 76 76 75 74 72 71 69 69 70 70 70 71 71 72 72 73 73 74 74 74 75 75 75 75 76 76 75 75 75 75 75 75
65 67 68 70 71 72 74 75 75 76 77 78 78 77 75 73 72 71 71 71 72 72 73 73 74 74 75 75 76 76 77 77 77 77 77 76 76 76 76 77 77 77
67 67 69 70 70 70 71 72 73 74 76 79 81 81 80 78 76 74 73 73 73 73 74 75 75 76 77 77 78 78 79 79 79 79 78 78 78 77 77 78 78 78
72 71 71 71 70 68 68 69 71 73 75 78 81 83 85 85 83 80 78 77 76 76 76 77 77 78 79 79 80 81 81 81 81 81 80 80 80 79 79 79 79 78
77 77 76 76 75 74 73 73 74 75 77 79 82 83 85 86 87 86 84 83 82 82 82 81 81 81 82 82 82 83 83 84 84 84 83 82 82 82 82 82 81 80
81 82 82 82 82 82 82 82 81 80 80 81 83 85 86 86 86 86 86 87 87 88 88 88 88 87 86 86 85 85 84 85 85 86 86 86 85 85 85 85 84 83
84 84 84 83 84 85 85 86 87 86 85 84 84 86 88 88 88 88 88 89 90 91 92 92 93 92 91 91 91 90 89 88 87 87 87 87 87 87 87 87 87 87
85 85 84 83 83 83 84 84 85 86 87 86 86 87 88 89 90 90 90 91 91 91 91 92 92 92 92 92 94 95 96 94 93 91 90 90 89 88 88 88 88 88
85 85 86 87 87 87 87 87 88 89 90 90 90 90 91 91 92 92 92 92 92 92 91 91 91 90 90 91 93 96 98 98 97 95 94 93 92 91 90 90 89 88
87 88 89 90 91 91 92 93 93 94 95 95 95 94 93 94 94 94 94 93 93 93 93 93 92 92 91 91 93 95 97 99 100 100 98 96 95 94 94 93 92 91
94 94 94 95 95 95 96 96 97 97 98 98 99 98 97 97 96 95 95 95 95 95 95 95 94 94 94 93 93 94 95 96 98 99 100 100 99 97 96 95 94 93
100 100 100 100 100 100 100 100 100 101 101 101 101 101 101 101 99 98 97 96 97 98 99 99 98 97 97 96 96 96 96 96 96 96 97 98 99 99 99 97 95 94
103 104 104 104 104 104 104 104 103 103 103 103 103 103 103 103 102 101 100 99 98 99 100 101 102 101 101 101 101 101 101 101 100 99 99 98 98 99 100 99 98 96
103 103 103 103 103 103 103 103 102 102 102 102 102 102 102 101 102 102 101 101 100 100 100 101 101 102 102 103 104 104 105 105 105 105 104 103 103 102 101 101 101 99
97 97 97 97 97 97 97 97 97 97 97 97 98 99 100 100 101 101 101 101 101 101 101 101 101 102 102 103 104 104 105 106 106 106 106 106 106 106 105 104 104 103
86 86 86 87 87 87 88 88 89 89 89 90 91 93 94 96 97 99 100 101 102 103 103 103 102 102 102 103 104 105 106 106 107 107 107 107 108 108 108 108 107 106
79 79 79 80 80 81 81 82 83 84 84 86 86 87 89 90 91 93 95 97 99 101 103 104 104 104 103 104 104 105 106 107 108 109 109 110 110 110 110 110 111 110
77 77 77 77 78 78 79 80 80 81 82 83 84 85 86 87 88 89 91 92 94 97 99 100 101 102 102 103 105 106 107 108 110 111 111 112 111 111 111 111 111 112
74 74 74 75 75 76 76 77 78 79 80 81 82 83 84 85 86 86 87 88 90 92 93 95 95 96 97 99 102 104 105 107 110 111 112 113 113 112 112 112 112 112
71 71 71 72 72 73 74 75 76 77 77 79 80 81 82 82 83 84 84 84 85 86 88 89 89 89 91 93 96 98 101 104 107 109 111 112 113 113 113 113 113 113
70 70 70 71 72 73 74 75 76 77 78 80 81 81 81 82 82 83 83 83 83 83 85 85 84 84 85 88 90 93 96 99 102 104 107 109 110 111 111 112 112 113
71 71 72 73 74 75 76 77 78 79 80 82 83 82 82 83 83 83 82 82 82 82 83 84 82 81 83 86 88 89 92 95 97 99 101 103 104 106 107 108 109 109
73 74 75 75 76 77 77 78 79 80 80 81 82 82 82 82 82 81 80 80 81 81 82 83 82 80 82 85 87 88 91 93 94 95 97 97 98 100 101 102 103 104
74 75 75 75 76 76 77 78 78 79 80 80 81 81 81 80 80 80 78 78 79 80 80 81 80 79 80 83 84 86 88 90 92 93 93 93 94 95 95 96 96 97
73 74 74 75 75 76 77 78 78 78 79 79 79 79 79 77 76 75 74 73 73 73 73 72 73 72 71 74 76 77 79 82 84 86 88 89 91 92 92 92 92 91
Wind_Direction
269 269 270 271 272 272 273 274 274 274 273 272 270 268 266 264 262 260 259 259 258 258 258 258 257 256 257 257 258 259 259 260 260 260 261 262 263 264 264 265 265 265
266 266 266 267 267 267 267 268 270 271 272 272 271 270 269 267 264 261 258 257 256 256 257 258 258 258 257 257 257 257 258 259 259 259 259 259 260 260 261 262 263 263
269 267 266 265 264 264 263 263 264 265 266 267 268 268 268 267 266 264 261 259 258 257 256 256 257 258 258 258 258 258 258 258 258 258 258 258 258 258 259 259 260 261
273 271 269 268 267 265 264 263 262 262 262 262 263 264 265 265 265 264 263 262 262 261 260 259 258 257 257 258 259 259 259 259 259 258 258 258 258 257 257 257 258 259
274 273 271 269 268 267 266 265 264 263 262 261 260 260 261 262 263 264 264 264 264 264 264 264 263 261 260 259 259 259 260 260 259 259 258 257 257 257 257 257 257 257
274 273 272 270 268 267 267 267 266 265 264 262 261 260 259 259 259 260 262 264 265 266 267 267 267 266 264 263 261 260 260 261 261 260 259 259 258 258 257 257 256 256
275 274 273 272 271 270 270 271 271 270 268 266 264 264 263 263 261 260 260 261 262 264 266 267 268 268 268 266 265 263 262 261 261 261 261 261 261 261 261 260 259 258
277 277 276 274 273 273 272 273 273 272 271 269 266 265 265 265 265 265 264 264 263 264 265 266 267 268 268 268 267 266 265 264 262 261 261 261 261 262 263 263 262 261
278 278 278 277 276 275 274 273 273 273 273 272 271 269 268 267 266 266 266 266 267 267 266 266 266 266 266 266 265 265 265 266 266 265 263 262 261 260 260 261 261 261
277 277 277 277 277 276 275 274 273 273 274 274 273 273 273 272 271 270 269 269 268 268 267 265 264 263 263 262 262 262 262 263 265 266 266 266 265 263 262 260 260 259
277 276 276 276 275 275 275 274 274 273 273 273 273 273 272 272 271 270 270 269 269 268 267 265 264 262 260 260 259 259 259 260 261 263 265 266 267 267 267 265 264 262
278 278 277 276 276 275 275 274 274 273 273 273 272 272 271 271 270 269 267 266 266 265 265 264 264 263 262 261 260 259 258 258 259 260 262 264 265 267 268 268 268 267
280 279 279 278 277 277 276 275 274 274 273 273 272 272 272 271 271 270 268 267 265 264 263 263 263 263 263 264 264 263 261 260 260 260 260 261 263 265 266 267 267 268
280 279 279 279 278 278 277 276 276 275 274 274 273 273 273 272 272 271 270 269 268 266 265 265 264 264 264 264 265 265 265 264 263 261 260 259 260 261 263 265 266 267
280 279 279 278 278 278 277 277 276 276 275 275 274 274 273 273 272 272 272 271 271 270 269 268 267 266 266 266 266 266 266 266 266 265 264 262 261 260 260 262 264 265
280 280 279 279 279 279 278 278 278 277 276 276 275 275 274 273 273 272 272 271 271 271 270 270 269 269 268 268 268 268 267 267 266 266 266 265 264 263 262 261 262 263
280 280 280 280 279 279 279 279 279 278 278 277 277 276 276 275 274 273 273 272 271 270 270 270 270 269 269 269 269 269 268 268 267 266 265 265 265 264 264 263 263 263
280 279 279 279 279 279 278 279 278 278 278 278 277 277 277 276 276 275 275 274 273 272 271 270 270 269 269 269 269 268 268 268 267 266 265 264 264 264 263 263 263 263
281 281 281 281 280 280 280 280 279 279 279 278 278 278 277 277 276 276 275 275 275 274 274 273 272 272 271 271 270 269 268 268 267 266 265 264 264 263 263 262 262 262
284 285 284 284 284 284 283 283 282 282 281 281 280 280 279 278 278 277 277 276 276 276 275 275 274 274 273 272 272 271 270 269 268 267 266 265 264 263 263 262 262 261
287 287 287 287 287 286 286 286 285 285 284 283 283 282 281 281 280 280 279 279 278 277 277 276 275 274 274 273 272 272 271 270 269 268 267 266 265 264 263 262 262 261
289 289 289 288 288 288 287 287 287 286 286 285 284 284 284 284 283 282 282 281 280 279 278 277 276 275 274 273 272 271 271 270 269 269 268 267 266 265 264 263 262 262
290 290 289 289 289 288 288 288 287 287 286 286 286 286 286 285 285 284 283 283 282 281 280 279 278 276 275 274 272 271 270 270 269 268 268 267 267 266 265 264 263 262
290 290 290 290 289 289 289 288 288 288 288 288 288 288 287 287 286 286 285 285 284 283 281 280 279 277 275 274 272 271 270 270 269 269 268 268 268 267 266 265 264 263
291 291 290 290 290 290 290 289 289 289 290 290 289 289 289 288 288 288 288 287 285 284 283 282 280 279 277 275 274 272 271 271 270 270 269 269 268 268 267 266 265 264
291 291 291 291 291 291 291 291 292 292 292 291 291 290 290 291 290 290 289 288 286 286 285 285 284 282 280 279 277 276 275 273 272 271 270 269 268 267 267 266 266 265
Height
5689 5688 5687 5686 5685 5683 5682 5681 5679 5678 5677 5677 5677 5677 5678 5678 5678 5677 5677 5676 5676 5675 5675 5675 5675 5675 5675 5675 5675 5675 5676 5676 5676 5676 5676 5677 5678 5678 5678 5678 5678 5678
5679 5679 5678 5677 5676 5674 5673 5672 5670 5669 5668 5667 5666 5666 5666 5666 5666 5667 5666 5666 5666 5665 5665 5664 5664 5664 5665 5665 5665 5665 5665 5665 5665 5665 5666 5666 5666 5667 5668 5668 5668 5668
5669 5668 5668 5667 5666 5665 5664 5663 5661 5660 5659 5657 5656 5655 5655 5654 5654 5655 5655 5655 5655 5655 5654 5654 5653 5653 5653 5654 5654 5654 5654 5654 5654 5654 5655 5656 5655 5656 5657 5657 5658 5658
5658 5658 5657 5656 5655 5654 5653 5652 5651 5650 5649 5648 5646 5645 5644 5644 5643 5643 5643 5643 5643 5643 5643 5643 5643 5643 5642 5642 5642 5642 5643 5643 5643 5644 5645 5645 5644 5645 5645 5646 5647 5647
5648 5647 5646 5645 5644 5643 5642 5641 5640 5640 5639 5638 5637 5635 5634 5633 5632 5631 5631 5631 5631 5631 5631 5631 5631 5632 5632 5631 5631 5630 5631 5631 5631 5632 5634 5634 5633 5633 5634 5634 5635 5636
5637 5636 5635 5634 5633 5631 5631 5630 5629 5629 5628 5627 5626 5624 5624 5622 5621 5621 5620 5619 5618 5618 5618 5618 5619 5619 5620 5620 5620 5619 5619 5619 5619 5619 5621 5622 5622 5622 5622 5622 5624 5625
5625 5624 5623 5622 5621 5619 5618 5617 5616 5616 5616 5615 5614 5613 5612 5611 5610 5610 5609 5609 5608 5607 5606 5606 5605 5605 5606 5607 5607 5608 5608 5608 5607 5608 5608 5609 5610 5610 5610 5610 5611 5613
5612 5611 5610 5610 5609 5607 5606 5605 5604 5603 5603 5603 5602 5601 5600 5599 5599 5598 5598 5597 5597 5597 5596 5595 5594 5593 5593 5593 5593 5594 5594 5594 5595 5596 5597 5597 5598 5598 5597 5597 5598 5601
5600 5599 5598 5597 5596 5595 5595 5593 5592 5591 5590 5589 5589 5588 5587 5586 5586 5585 5585 5585 5585 5585 5584 5584 5584 5583 5582 5581 5581 5580 5580 5580 5580 5581 5583 5584 5585 5586 5586 5585 5586 5588
5589 5588 5586 5585 5584 5583 5582 5580 5579 5578 5577 5576 5576 5575 5574 5573 5572 5572 5571 5571 5571 5571 5571 5571 5571 5571 5571 5570 5569 5569 5569 5568 5567 5567 5567 5569 5570 5571 5572 5572 5574 5576
5576 5575 5574 5572 5571 5569 5568 5566 5565 5564 5563 5562 5561 5561 5560 5559 5558 5558 5558 5558 5557 5556 5556 5556 5556 5557 5557 5558 5557 5556 5556 5556 5556 5555 5554 5554 5555 5555 5556 5557 5558 5561
5560 5559 5558 5557 5556 5555 5553 5552 5550 5549 5548 5546 5545 5545 5545 5544 5543 5544 5544 5544 5545 5544 5543 5542 5542 5542 5542 5543 5543 5542 5542 5543 5543 5542 5542 5541 5541 5542 5542 5542 5543 5545
5545 5543 5541 5540 5539 5538 5537 5536 5534 5533 5532 5531 5529 5528 5528 5527 5527 5527 5528 5528 5529 5529 5529 5529 5529 5529 5529 5528 5527 5526 5526 5527 5528 5529 5529 5529 5529 5528 5529 5529 5530 5531
5530 5528 5526 5524 5522 5521 5519 5518 5517 5516 5516 5515 5513 5512 5511 5510 5510 5510 5511 5512 5512 5512 5513 5513 5513 5515 5515 5514 5512 5511 5511 5510 5511 5512 5513 5514 5515 5516 5516 5516 5517 5518
5514 5513 5510 5508 5506 5504 5502 5501 5500 5499 5499 5498 5497 5495 5495 5494 5494 5494 5495 5495 5495 5495 5495 5496 5496 5498 5499 5497 5495 5495 5494 5494 5493 5494 5495 5496 5498 5500 5502 5503 5503 5504
5499 5497 5495 5493 5491 5489 5487 5485 5484 5483 5482 5481 5479 5478 5478 5478 5478 5479 5478 5478 5478 5478 5478 5479 5479 5481 5482 5480 5478 5477 5477 5476 5476 5476 5477 5477 5478 5482 5485 5487 5489 5489
5486 5484 5482 5481 5478 5475 5473 5472 5470 5468 5467 5465 5464 5463 5462 5461 5461 5461 5461 5460 5460 5460 5461 5462 5463 5464 5465 5463 5461 5460 5458 5457 5457 5458 5459 5459 5460 5463 5466 5470 5472 5473
5475 5473 5472 5470 5467 5464 5462 5460 5458 5456 5454 5452 5451 5449 5448 5447 5446 5445 5444 5443 5441 5441 5442 5444 5445 5448 5448 5445 5444 5442 5440 5437 5436 5437 5439 5441 5443 5445 5448 5451 5454 5456
5463 5462 5460 5458 5455 5453 5451 5449 5447 5444 5442 5440 5438 5437 5435 5434 5433 5431 5430 5429 5427 5425 5425 5426 5428 5430 5430 5427 5424 5422 5420 5417 5415 5415 5418 5421 5424 5427 5429 5433 5436 5438
5452 5450 5448 5446 5443 5440 5438 5436 5434 5431 5430 5427 5424 5423 5421 5420 5419 5418 5417 5416 5415 5412 5410 5411 5413 5414 5412 5408 5405 5402 5399 5396 5393 5394 5396 5400 5405 5408 5411 5414 5417 5419
5442 5440 5437 5435 5432 5429 5427 5424 5421 5419 5417 5413 5410 5409 5408 5406 5405 5404 5403 5403 5401 5398 5395 5396 5399 5399 5396 5391 5387 5384 5380 5376 5373 5373 5375 5378 5383 5388 5391 5394 5398 5400
5432 5430 5427 5424 5422 5419 5416 5413 5410 5407 5404 5400 5397 5396 5395 5393 5391 5390 5388 5388 5387 5384 5380 5379 5383 5384 5380 5375 5371 5367 5362 5358 5355 5355 5356 5358 5362 5368 5371 5374 5377 5380
5422 5420 5417 5414 5411 5408 5405 5402 5398 5395 5392 5387 5384 5384 5382 5380 5377 5375 5375 5373 5371 5370 5365 5363 5366 5369 5364 5358 5354 5350 5345 5341 5339 5338 5338 5340 5345 5349 5351 5352 5356 5360
5413 5409 5406 5403 5401 5397 5394 5391 5387 5384 5380 5376 5372 5370 5369 5366 5362 5361 5361 5360 5356 5353 5350 5346 5348 5351 5348 5340 5337 5334 5329 5325 5323 5322 5323 5325 5328 5330 5332 5332 5336 5341
5402 5399 5396 5392 5390 5386 5382 5379 5376 5372 5369 5365 5361 5358 5355 5353 5350 5347 5348 5347 5341 5336 5334 5330 5329 5332 5330 5323 5320 5318 5314 5311 5309 5308 5309 5312 5312 5312 5314 5316 5319 5324
5392 5389 5386 5382 5378 5375 5371 5368 5364 5361 5357 5353 5350 5346 5343 5342 5339 5334 5333 5333 5328 5322 5320 5317 5314 5315 5314 5308 5304 5303 5300 5296 5294 5293 5294 5295 5295 5295 5297 5301 5304 5306